When you browse on this site, cookies collect data to enhance your experience and personalize the content and advertising you see.
Visit our Privacy Policy to learn more. By continuing to use the site, you agree to this use of cookies and data.
  • In Austria
  • List of Countries
  • For 7 days
  • Water Temperature
  • Weather Map
  • News
  • Weather Widgets
  • user-avatar
    Login

    Hourly Weather Toronto

    Today, 12 December, Thursday

    Time Temperature Precipitation Wind Pressure Humidity
    00:00 -11°C° 0 mm 5 mps 762 mmHg 64%
    01:00 -10°C° 0 mm 4 mps 762 mmHg 66%
    02:00 -10°C° 0 mm 4 mps 763 mmHg 67%
    03:00 -10°C° 0 mm 4 mps 763 mmHg 68%
    04:00 -10°C° 0 mm 4 mps 763 mmHg 69%
    05:00 -9°C° 0 mm 3 mps 763 mmHg 69%
    06:00 -9°C° 0 mm 3 mps 764 mmHg 69%
    07:00 -9°C° 0 mm 3 mps 764 mmHg 69%
    08:00 -8°C° 0 mm 3 mps 764 mmHg 66%
    09:00 -8°C° 0 mm 3 mps 764 mmHg 62%
    10:00 -6°C° 0 mm 2 mps 764 mmHg 59%
    11:00 -6°C° 0 mm 3 mps 764 mmHg 58%
    12:00 -6°C° 0 mm 3 mps 763 mmHg 57%
    13:00 -5°C° 0 mm 4 mps 763 mmHg 55%
    14:00 -4°C° 0 mm 4 mps 762 mmHg 56%
    15:00 -5°C° 0 mm 5 mps 761 mmHg 57%
    16:00 -4°C° 0 mm 6 mps 760 mmHg 58%
    17:00 -4°C° 0 mm 5 mps 759 mmHg 58%
    18:00 -4°C° 0 mm 5 mps 759 mmHg 58%
    19:00 -4°C° 0 mm 5 mps 758 mmHg 59%
    20:00 -2°C° 0 mm 5 mps 757 mmHg 60%
    21:00 -2°C° 0 mm 5 mps 757 mmHg 61%
    22:00 -2°C° 0 mm 5 mps 756 mmHg 63%
    23:00 -2°C° 0 mm 5 mps 756 mmHg 64%

    Tomorrow, 13 December, Friday

    Time Temperature Precipitation Wind Pressure Humidity
    00:00 -2°C° 0 mm 4 mps 755 mmHg 66%
    01:00 -1°C° 0 mm 3 mps 755 mmHg 67%
    02:00 -1°C° 0 mm 3 mps 755 mmHg 69%
    03:00 -2°C° 0 mm 4 mps 754 mmHg 71%
    04:00 -2°C° 0 mm 4 mps 754 mmHg 72%
    05:00 -2°C° 0 mm 4 mps 754 mmHg 74%
    06:00 -2°C° 0 mm 4 mps 754 mmHg 77%
    07:00 -2°C° 0 mm 5 mps 754 mmHg 79%
    08:00 -1°C° 0 mm 5 mps 754 mmHg 79%
    09:00 -1°C° 0 mm 5 mps 753 mmHg 78%
    10:00 -2°C° 0 mm 6 mps 753 mmHg 78%
    11:00 0°C° 0 mm 5 mps 753 mmHg 77%
    12:00 0°C° 0 mm 4 mps 752 mmHg 76%
    13:00 +1°C° 0 mm 4 mps 752 mmHg 75%
    14:00 +1°C° 0 mm 3 mps 751 mmHg 77%
    15:00 +1°C° 0 mm 3 mps 751 mmHg 80%
    16:00 +2°C° 0 mm 2 mps 750 mmHg 82%
    17:00 +1°C° 0 mm 2 mps 750 mmHg 82%
    18:00 +1°C° 0 mm 2 mps 750 mmHg 83%
    19:00 +1°C° 0 mm 2 mps 750 mmHg 84%
    20:00 +1°C° 0 mm 2 mps 749 mmHg 84%
    21:00 +1°C° 0 mm 2 mps 749 mmHg 84%
    22:00 +2°C° 0 mm 1 mps 748 mmHg 85%
    23:00 +2°C° 0 mm 1 mps 748 mmHg 84%

    Day after tomorrow, 14 December, Saturday

    Time Temperature Precipitation Wind Pressure Humidity
    00:00 +2°C° 0 mm 1 mps 747 mmHg 82%
    01:00 +2°C° 0 mm 1 mps 746 mmHg 81%
    02:00 +1°C° 0.1 mm 2 mps 745 mmHg 81%
    03:00 +1°C° 0.1 mm 2 mps 745 mmHg 82%
    04:00 +1°C° 0.1 mm 2 mps 744 mmHg 82%
    05:00 0°C° 0.6 mm 3 mps 743 mmHg 86%
    06:00 0°C° 0.6 mm 3 mps 742 mmHg 91%
    07:00 -1°C° 0.6 mm 4 mps 742 mmHg 95%
    08:00 -1°C° 0.5 mm 4 mps 741 mmHg 95%
    09:00 -1°C° 0.5 mm 4 mps 740 mmHg 95%
    10:00 0°C° 0.5 mm 4 mps 739 mmHg 95%
    11:00 0°C° 0.3 mm 4 mps 738 mmHg 95%
    12:00 0°C° 0.3 mm 4 mps 737 mmHg 95%
    13:00 0°C° 0.3 mm 4 mps 736 mmHg 95%
    14:00 +1°C° 0.3 mm 4 mps 736 mmHg 95%
    15:00 +1°C° 0.3 mm 4 mps 736 mmHg 94%
    16:00 +1°C° 0.3 mm 4 mps 735 mmHg 94%
    17:00 +1°C° 0.1 mm 5 mps 735 mmHg 94%
    18:00 0°C° 0.1 mm 5 mps 735 mmHg 95%
    19:00 -1°C° 0.1 mm 6 mps 736 mmHg 95%
    20:00 -1°C° 0 mm 6 mps 736 mmHg 94%
    21:00 0°C° 0 mm 5 mps 736 mmHg 93%
    22:00 0°C° 0 mm 5 mps 736 mmHg 91%
    23:00 0°C° 0 mm 5 mps 736 mmHg 89%

    15 December, Sunday

    Time Temperature Precipitation Wind Pressure Humidity
    00:00 0°C° 0 mm 5 mps 736 mmHg 87%
    01:00 0°C° 0 mm 4 mps 736 mmHg 85%
    02:00 0°C° 0 mm 4 mps 737 mmHg 85%
    03:00 0°C° 0 mm 4 mps 737 mmHg 85%
    04:00 0°C° 0 mm 4 mps 738 mmHg 86%
    05:00 0°C° 0 mm 4 mps 738 mmHg 85%
    06:00 0°C° 0 mm 4 mps 739 mmHg 85%
    07:00 0°C° 0 mm 4 mps 739 mmHg 84%
    08:00 0°C° 0 mm 4 mps 740 mmHg 84%
    09:00 0°C° 0 mm 4 mps 741 mmHg 84%
    10:00 0°C° 0 mm 4 mps 742 mmHg 83%
    11:00 0°C° 0 mm 5 mps 743 mmHg 77%
    12:00 -2°C° 0 mm 7 mps 743 mmHg 71%
    13:00 -2°C° 0 mm 8 mps 744 mmHg 64%
    14:00 -4°C° 0 mm 8 mps 745 mmHg 63%
    15:00 -5°C° 0 mm 8 mps 746 mmHg 62%
    16:00 -6°C° 0 mm 8 mps 747 mmHg 61%
    17:00 -7°C° 0 mm 7 mps 748 mmHg 61%
    18:00 -7°C° 0 mm 7 mps 749 mmHg 61%
    19:00 -8°C° 0 mm 6 mps 750 mmHg 61%
    20:00 -8°C° 0 mm 6 mps 751 mmHg 60%
    21:00 -7°C° 0 mm 5 mps 752 mmHg 59%
    22:00 -7°C° 0 mm 5 mps 752 mmHg 58%
    23:00 -7°C° 0 mm 5 mps 753 mmHg 58%

    16 December, Monday

    Time Temperature Precipitation Wind Pressure Humidity
    00:00 -7°C° 0 mm 4 mps 753 mmHg 58%
    01:00 -7°C° 0 mm 4 mps 754 mmHg 58%
    02:00 -6°C° 0 mm 3 mps 754 mmHg 59%
    03:00 -6°C° 0 mm 3 mps 754 mmHg 59%
    04:00 -5°C° 0 mm 2 mps 755 mmHg 60%
    05:00 -5°C° 0 mm 2 mps 755 mmHg 60%
    06:00 -3°C° 0 mm 1 mps 755 mmHg 61%
    07:00 -4°C° 0 mm 0 mps 755 mmHg 61%
    08:00 -3°C° 0 mm 1 mps 755 mmHg 60%
    09:00 -3°C° 0 mm 1 mps 755 mmHg 59%
    10:00 -4°C° 0 mm 2 mps 756 mmHg 58%
    11:00 -4°C° 0 mm 2 mps 755 mmHg 58%
    12:00 -4°C° 0 mm 3 mps 754 mmHg 58%
    13:00 -4°C° 0 mm 4 mps 754 mmHg 58%
    14:00 -5°C° 0 mm 5 mps 753 mmHg 60%
    15:00 -5°C° 0 mm 5 mps 752 mmHg 62%
    16:00 -5°C° 0 mm 6 mps 751 mmHg 64%
    17:00 -6°C° 0.4 mm 7 mps 750 mmHg 74%
    18:00 -6°C° 0.4 mm 8 mps 749 mmHg 83%
    19:00 -8°C° 0.4 mm 9 mps 747 mmHg 93%
    20:00 -6°C° 0.9 mm 9 mps 746 mmHg 93%
    21:00 -6°C° 0.9 mm 9 mps 744 mmHg 94%
    22:00 -6°C° 0.9 mm 9 mps 742 mmHg 95%
    23:00 -5°C° 1.3 mm 8 mps 741 mmHg 96%

    17 December, Tuesday

    Time Temperature Precipitation Wind Pressure Humidity
    00:00 -4°C° 1.3 mm 8 mps 739 mmHg 97%
    01:00 -3°C° 1.3 mm 7 mps 737 mmHg 97%
    02:00 -2°C° 0.5 mm 6 mps 737 mmHg 98%
    03:00 0°C° 0.5 mm 5 mps 737 mmHg 98%
    04:00 +1°C° 0.5 mm 4 mps 736 mmHg 99%
    05:00 -2°C° 0 mm 5 mps 737 mmHg 93%
    06:00 -6°C° 0 mm 7 mps 739 mmHg 87%
    07:00 -8°C° 0 mm 8 mps 740 mmHg 81%
    08:00 -8°C° 0 mm 7 mps 741 mmHg 80%
    09:00 -7°C° 0 mm 7 mps 743 mmHg 79%
    10:00 -6°C° 0 mm 6 mps 744 mmHg 77%
    11:00 -5°C° 0 mm 6 mps 745 mmHg 76%
    12:00 -4°C° 0 mm 6 mps 745 mmHg 76%
    13:00 -4°C° 0 mm 5 mps 745 mmHg 75%
    14:00 -4°C° 0 mm 5 mps 745 mmHg 76%
    15:00 -4°C° 0 mm 6 mps 745 mmHg 77%
    16:00 -4°C° 0 mm 6 mps 745 mmHg 79%
    17:00 -4°C° 0 mm 6 mps 745 mmHg 78%
    18:00 -5°C° 0 mm 6 mps 745 mmHg 78%
    19:00 -7°C° 0 mm 7 mps 746 mmHg 78%
    20:00 -7°C° 0 mm 8 mps 746 mmHg 78%
    21:00 -7°C° 0 mm 8 mps 746 mmHg 77%
    22:00 -8°C° 0 mm 9 mps 746 mmHg 77%
    23:00 -9°C° 0 mm 9 mps 747 mmHg 76%
    Show more